Date,TemperatureHighF,TemperatureAvgF,TemperatureLowF,DewpointHighF,DewpointAvgF,DewpointLowF,HumidityHigh,HumidityAvg,HumidityLow,PressureMaxIn,PressureMinIn,WindSpeedMaxMPH,WindSpeedAvgMPH,GustSpeedMaxMPH,PrecipitationSumIn
2013-1-1,50.6,40.4,34.9,39.1,34.2,31.1,88,79,58,30.36,30.26,6,1,6,0.01
2013-1-2,52.2,39.8,31.3,40.0,33.3,27.9,89,78,61,30.32,30.20,4,0,4,0.00
2013-1-3,52.4,40.1,31.0,42.2,34.2,27.5,90,80,64,30.33,30.22,4,0,4,0.00
2013-1-4,54.4,42.0,33.1,42.9,36.1,29.6,90,80,63,30.37,30.24,3,0,3,0.00
2013-1-5,53.5,43.7,35.3,45.5,39.1,31.9,90,84,72,30.34,30.15,4,0,4,0.54
2013-1-6,52.7,45.9,39.1,48.0,42.5,36.3,92,88,81,30.24,30.13,4,0,4,0.26
2013-1-7,51.1,43.3,38.3,45.2,39.8,35.6,93,88,75,30.31,30.19,4,0,4,0.02
2013-1-8,54.7,44.8,37.4,46.9,40.6,34.7,93,86,73,30.32,30.19,3,0,3,0.00
2013-1-9,52.2,46.0,39.4,47.0,41.5,34.7,92,85,74,30.22,29.98,6,1,6,0.01
2013-1-10,49.1,40.0,32.6,39.2,33.3,29.4,90,78,55,30.20,30.07,8,1,8,0.00
2013-1-11,49.7,38.7,29.9,36.7,31.5,26.2,89,76,56,30.29,30.17,4,0,4,0.02
2013-1-12,46.1,38.3,32.0,32.4,29.2,25.0,83,71,50,30.30,30.20,6,1,6,0.00
2013-1-13,43.9,35.7,27.4,33.0,27.2,23.1,86,72,55,30.32,30.22,7,1,7,0.00
2013-1-14,48.2,38.7,30.6,28.1,25.3,21.6,72,59,44,30.47,30.26,6,1,6,0.00
2013-1-15,50.8,39.3,30.8,36.3,30.3,24.8,81,71,56,30.56,30.44,3,0,3,0.00
2013-1-16,54.2,41.0,31.0,40.3,32.8,26.7,87,74,52,30.51,30.34,4,0,4,0.00
2013-1-17,57.2,42.1,31.1,41.1,34.2,27.2,88,74,53,30.35,30.22,4,0,4,0.00
2013-1-18,57.4,43.1,32.8,41.3,35.0,29.0,90,74,49,30.31,30.20,5,0,5,0.00
2013-1-19,58.3,43.7,32.8,41.2,34.9,28.7,89,73,45,30.34,30.22,6,0,6,0.00
2013-1-20,58.5,43.6,32.9,40.6,34.1,28.8,88,71,45,30.31,30.18,5,0,5,0.00
2013-1-21,59.9,44.5,34.0,42.8,35.7,29.8,88,72,48,30.26,30.16,2,0,2,0.00
2013-1-22,59.9,46.3,34.9,44.7,38.4,30.7,88,75,57,30.21,30.08,4,0,4,0.00
2013-1-23,59.9,49.9,45.0,48.3,43.9,39.9,89,80,61,30.15,30.03,7,0,7,0.15
2013-1-24,59.2,52.5,48.1,52.6,48.8,45.0,90,87,78,30.25,30.12,6,1,6,0.07
2013-1-25,64.3,57.1,52.4,57.1,52.7,49.7,92,86,75,30.24,30.08,5,0,5,0.01
2013-1-26,60.8,53.1,44.3,52.6,47.2,38.8,92,81,59,30.08,29.97,6,1,6,0.00
2013-1-27,53.6,45.2,36.9,42.0,37.6,33.5,90,76,56,30.21,30.05,8,1,8,0.00
2013-1-28,56.2,44.9,35.3,41.6,36.4,31.3,88,73,50,30.31,30.17,8,1,8,0.00
2013-1-29,58.9,47.4,38.7,43.2,38.2,33.8,86,72,48,30.39,30.27,10,1,10,0.00
2013-1-30,60.5,47.8,37.6,46.3,39.8,33.5,87,75,57,30.41,30.31,5,0,5,0.00
2013-1-31,62.3,48.8,38.2,49.2,41.9,34.5,89,78,60,30.37,30.24,4,0,4,0.00
2013-2-1,62.8,49.8,38.7,49.4,43.2,35.1,91,79,60,30.28,30.17,4,0,4,0.00
2013-2-2,63.0,50.8,42.8,49.2,43.6,39.1,90,77,57,30.34,30.24,4,0,4,0.00
2013-2-3,60.1,48.5,40.0,49.7,42.8,36.4,91,81,65,30.29,30.15,4,0,4,0.00
2013-2-4,62.3,49.6,39.8,51.0,43.8,36.5,91,81,64,30.23,30.09,5,0,5,0.00
2013-2-5,56.5,48.5,41.6,47.3,42.8,38.6,90,81,69,30.17,30.08,6,1,6,0.00
2013-2-6,58.7,50.0,40.3,45.8,42.0,36.7,90,75,57,30.23,30.14,6,1,6,0.00
2013-2-7,58.0,48.9,40.5,48.3,41.0,36.3,88,75,54,30.20,30.04,7,1,7,0.00
2013-2-8,55.4,44.3,38.5,41.3,34.7,31.0,87,71,46,30.05,29.95,8,1,8,0.00
2013-2-9,55.3,44.9,36.0,35.3,31.9,28.5,76,61,45,30.13,30.00,5,0,5,0.00
2013-2-10,58.7,46.1,34.0,41.1,35.5,29.0,84,68,50,30.19,30.04,7,1,7,0.00
2013-2-11,61.2,46.6,34.6,37.2,33.8,29.0,82,63,37,30.28,30.10,4,0,4,0.00
2013-2-12,59.9,47.5,36.7,42.5,36.6,31.1,83,67,50,30.43,30.28,4,0,4,0.00
2013-2-13,61.9,48.9,37.1,45.6,38.9,32.0,84,69,51,30.39,30.24,5,0,5,0.00
2013-2-14,66.6,49.0,39.2,47.1,40.3,34.8,87,73,48,30.31,30.20,5,0,5,0.00
2013-2-15,68.4,53.3,40.3,50.0,43.1,35.8,88,70,46,30.34,30.26,3,0,3,0.00
2013-2-16,68.2,53.6,42.7,47.4,42.3,37.8,85,68,43,30.30,30.06,5,0,5,0.00
2013-2-17,63.9,52.5,40.9,46.4,41.4,35.9,86,67,47,30.09,29.98,6,1,6,0.00
2013-2-18,60.1,48.7,39.2,47.2,40.1,34.3,88,73,58,30.06,29.95,9,2,9,0.00
2013-2-19,49.0,44.3,38.0,43.9,38.5,33.8,85,80,74,29.96,29.77,8,2,8,0.25
2013-2-20,58.7,45.1,33.8,41.8,34.5,30.2,89,69,42,30.07,29.86,11,1,11,0.01
2013-2-21,59.8,47.2,37.1,42.6,35.3,32.0,84,65,39,30.21,30.07,10,1,10,0.00
2013-2-22,62.6,50.1,36.4,42.5,37.2,30.4,81,63,41,30.30,30.18,6,1,6,0.00
2013-2-23,58.9,50.9,43.6,42.4,34.4,28.1,82,56,33,30.29,30.16,11,3,11,0.00
2013-2-24,61.7,49.5,39.6,33.4,29.9,27.0,64,48,30,30.29,30.19,10,2,10,0.00
2013-2-25,62.3,49.9,38.7,43.6,35.4,29.6,75,58,41,30.32,30.20,8,1,8,0.00
2013-2-26,65.3,51.7,40.7,32.8,30.9,27.9,67,47,28,30.25,30.15,14,2,14,0.00
2013-2-27,67.7,51.9,37.1,41.6,34.5,28.6,73,53,33,30.39,30.23,5,0,5,0.00
2013-2-28,70.2,56.7,44.1,44.3,40.3,35.8,74,56,38,30.48,30.39,8,1,8,0.00
2013-3-1,71.5,53.6,43.9,50.1,42.4,37.8,80,67,45,30.46,30.28,3,0,3,0.00
2013-3-2,73.8,60.3,48.2,53.0,48.0,42.1,82,65,45,30.29,30.10,4,0,4,0.00
2013-3-3,68.2,59.9,50.4,54.3,49.2,43.7,78,68,56,30.11,30.04,6,1,6,0.00
2013-3-4,66.1,54.4,45.9,52.7,46.3,39.8,86,75,61,30.18,30.06,6,1,6,0.00
2013-3-5,61.4,52.7,45.9,46.0,42.0,37.9,80,67,54,30.08,29.88,7,2,7,0.08
2013-3-6,61.7,52.8,47.9,45.6,41.7,37.2,86,67,44,30.11,29.88,10,2,10,0.19
2013-3-7,61.7,51.4,41.9,44.2,40.5,36.6,84,67,48,30.05,29.90,5,0,5,0.00
2013-3-8,67.5,52.4,41.4,43.7,39.7,34.7,80,64,33,30.06,29.85,7,1,7,0.00
2013-3-9,68.6,54.5,41.0,46.8,37.9,32.6,86,58,28,30.32,30.06,10,1,10,0.00
2013-3-10,66.8,54.1,41.6,49.5,40.8,32.4,77,62,45,30.41,30.29,6,1,6,0.00
2013-3-11,71.1,56.6,42.8,49.2,43.5,37.4,84,64,40,30.31,30.13,5,0,5,0.00
2013-3-12,74.5,60.1,45.9,51.7,46.7,40.4,84,63,42,30.21,30.10,5,0,5,0.00
2013-3-13,76.7,62.2,48.4,56.1,49.8,43.1,85,65,45,30.22,30.11,6,0,6,0.00
2013-3-14,79.4,64.0,50.8,56.9,51.0,45.5,84,65,43,30.19,30.11,4,0,4,0.00
2013-3-15,76.0,62.2,50.0,54.8,49.0,43.7,80,64,40,30.15,30.04,6,1,6,0.00
2013-3-16,76.0,61.6,47.7,51.8,46.3,37.6,85,61,28,30.11,30.01,7,1,7,0.00
2013-3-17,71.8,60.3,49.3,43.9,40.2,36.3,67,49,30,30.17,30.05,7,1,7,0.00
2013-3-18,72.0,58.6,44.6,47.2,42.4,38.1,80,57,37,30.15,30.05,5,1,5,0.00
2013-3-19,73.3,59.9,49.1,49.7,45.8,41.3,80,61,42,30.18,30.08,5,1,5,0.21
2013-3-20,65.2,57.8,51.7,57.4,51.9,46.4,89,81,74,30.16,30.11,6,1,6,0.36
2013-3-21,66.2,55.6,44.8,49.0,42.6,33.0,89,66,31,30.16,30.03,10,2,10,0.00
2013-3-22,65.2,58.2,45.9,32.6,28.1,22.2,51,33,22,30.13,30.05,14,4,14,0.00
2013-3-23,68.0,55.4,43.7,36.2,31.7,27.0,56,42,25,30.19,30.06,7,1,7,0.00
2013-3-24,73.3,58.3,43.2,44.4,39.3,34.8,75,52,31,30.13,29.98,4,0,4,0.00
2013-3-25,69.8,58.0,49.9,50.4,43.9,39.3,74,60,43,30.04,29.94,8,2,8,0.00
2013-3-26,71.5,58.7,47.0,50.8,45.2,40.5,80,62,44,30.03,29.94,6,1,7,0.00
2013-3-27,71.3,62.0,48.8,54.1,49.1,41.3,77,63,53,30.06,29.97,8,1,8,0.00
2013-3-28,72.0,62.0,54.9,55.5,51.3,47.8,81,69,51,30.13,30.06,4,1,4,0.00
2013-3-29,78.1,63.9,50.9,53.9,50.2,46.3,85,64,40,30.15,30.03,5,1,5,0.00
2013-3-30,76.9,64.0,53.3,56.9,51.2,46.8,81,65,46,30.08,30.00,6,1,6,0.00
2013-3-31,72.4,61.8,56.2,57.6,52.8,49.1,88,74,47,30.14,30.02,5,1,5,0.82
2013-4-1,71.3,61.5,53.3,57.3,52.7,49.1,89,74,56,30.19,30.10,4,0,4,0.04
2013-4-2,73.3,61.5,49.5,56.3,51.2,45.1,88,70,49,30.21,30.09,5,1,5,0.00
2013-4-3,77.6,63.4,50.4,57.5,51.5,45.7,86,67,42,30.17,30.00,4,0,4,0.00
2013-4-4,68.0,59.7,54.4,59.1,52.6,45.6,86,78,58,30.16,30.01,5,1,5,0.57
2013-4-5,70.9,59.3,51.5,56.3,52.0,48.0,90,78,57,30.20,30.13,5,1,5,0.00
2013-4-6,69.8,60.1,52.9,56.6,52.3,47.7,86,76,60,30.22,30.13,4,1,4,0.00
2013-4-7,71.1,63.6,51.5,56.2,50.3,44.9,83,63,53,30.18,29.88,9,2,9,0.00
2013-4-8,67.9,61.8,50.4,47.0,36.5,33.3,81,41,29,30.04,29.77,11,3,15,0.00
2013-4-9,74.3,60.8,49.3,40.1,36.9,33.8,60,43,25,30.12,30.04,10,2,10,0.00
2013-4-10,83.5,62.5,52.6,54.7,43.4,38.3,61,51,31,30.22,30.00,4,1,4,0.00
2013-4-11,78.3,69.8,57.4,50.9,41.9,34.8,64,38,24,30.02,29.85,6,1,6,0.00
2013-4-12,80.8,64.3,49.5,53.8,45.4,41.1,76,53,26,29.93,29.82,5,1,5,0.00
2013-4-13,77.4,64.3,52.6,53.0,48.0,43.5,73,57,35,29.91,29.80,5,1,5,0.00
2013-4-14,75.1,62.1,48.6,47.6,41.8,33.8,74,50,25,29.93,29.77,6,1,6,0.00
2013-4-15,68.0,56.9,48.2,49.9,43.1,32.9,78,61,39,29.94,29.83,8,1,8,0.00
2013-4-16,68.0,57.7,47.9,37.1,31.6,26.6,57,39,23,30.17,29.94,10,2,10,0.00
2013-4-17,69.7,58.2,44.8,32.5,30.0,28.2,59,37,22,30.28,30.21,9,2,9,0.00
2013-4-18,75.2,61.6,45.9,39.3,33.9,29.3,57,37,21,30.31,30.21,5,1,5,0.00
2013-4-19,80.8,66.3,49.9,50.2,45.0,38.6,68,48,31,30.28,30.07,5,0,5,0.00
2013-4-20,82.3,69.4,57.4,46.3,40.2,31.2,52,37,18,30.14,29.98,7,2,7,0.00
2013-4-21,85.5,68.8,51.8,52.2,45.3,41.6,72,46,22,30.08,29.95,6,1,6,0.00
2013-4-22,86.9,72.4,57.6,51.4,42.8,30.8,66,40,16,30.00,29.87,7,2,7,0.00
2013-4-23,82.8,71.2,59.8,41.5,32.9,28.1,46,26,15,29.97,29.85,8,2,8,0.00
2013-4-24,87.7,64.9,52.7,51.2,42.2,29.4,66,48,15,29.91,29.77,6,1,6,0.00
2013-4-25,76.3,66.2,52.6,51.9,48.4,43.5,72,54,41,30.13,29.90,7,2,7,0.00
2013-4-26,81.2,65.2,51.3,55.7,49.6,44.2,78,59,39,30.24,30.12,6,1,6,0.00
2013-4-27,86.0,68.8,52.9,57.4,51.5,45.2,77,56,35,30.25,30.06,5,1,5,0.00
2013-4-28,89.3,72.7,55.4,59.4,50.8,44.2,75,50,25,30.07,29.89,4,1,4,0.00
2013-4-29,90.0,76.1,61.2,54.6,49.5,41.7,70,43,19,29.92,29.77,6,1,6,0.00
2013-4-30,82.8,74.2,65.3,49.5,34.9,24.5,43,26,14,29.89,29.78,9,3,9,0.00
2013-5-1,86.8,73.9,59.9,37.3,30.1,25.8,32,21,13,30.12,29.89,10,2,10,0.00
2013-5-2,88.9,74.9,60.7,41.2,34.5,27.4,37,25,12,30.21,30.09,6,1,6,0.00
2013-5-3,90.2,75.1,57.2,51.1,43.5,37.7,58,35,17,30.10,29.80,4,1,4,0.00
2013-5-4,87.8,75.5,62.3,47.8,42.6,35.5,54,34,18,29.81,29.54,8,1,8,0.00
2013-5-5,77.6,67.5,56.9,51.4,47.9,44.2,66,50,38,29.85,29.59,7,1,7,0.00
2013-5-6,75.2,65.7,59.6,56.1,52.1,47.4,83,63,44,30.00,29.85,6,1,6,0.64
2013-5-7,76.5,66.8,57.4,58.7,54.4,50.9,87,66,46,30.05,29.99,5,0,5,0.00
2013-5-8,75.4,65.3,57.4,57.2,52.3,47.7,82,64,45,30.14,30.04,7,2,7,0.02
2013-5-9,81.9,66.7,54.0,60.0,52.9,47.7,81,63,46,30.16,30.05,6,2,6,0.00
2013-5-10,85.5,69.9,54.9,62.8,54.7,48.2,79,60,45,30.19,30.07,5,1,5,0.00
2013-5-11,92.0,76.4,59.0,64.1,57.2,50.6,75,54,37,30.15,30.03,4,1,4,0.00
2013-5-12,92.2,76.4,61.7,60.5,53.0,46.9,67,46,23,30.14,30.01,5,1,5,0.00
2013-5-13,90.2,74.5,60.1,59.7,52.9,46.5,64,48,28,30.09,29.93,6,1,6,0.00
2013-5-14,88.6,74.1,59.9,60.6,53.9,46.2,72,51,35,29.95,29.89,8,2,8,0.00
2013-5-15,79.4,68.0,55.6,52.3,48.8,44.6,68,51,37,30.04,29.95,8,2,8,0.00
2013-5-16,79.9,66.2,57.4,55.8,50.2,45.3,72,57,39,30.03,29.93,7,2,7,0.00
2013-5-17,77.6,65.3,53.3,54.2,47.0,41.1,74,54,33,30.08,29.97,8,2,8,0.00
2013-5-18,81.5,67.3,51.3,57.5,48.6,42.3,76,53,29,30.15,30.06,6,1,6,0.00
2013-5-19,84.1,72.8,58.3,51.0,46.3,39.7,73,42,22,30.14,29.98,8,2,8,0.00
2013-5-20,89.1,77.4,64.4,49.9,43.4,30.3,46,32,13,30.04,29.91,6,1,6,0.00
2013-5-21,84.6,71.6,59.8,51.5,45.7,33.2,61,42,17,29.97,29.87,9,2,9,0.00
2013-5-22,73.6,63.6,52.9,40.4,31.0,22.2,54,31,16,30.03,29.89,13,2,13,0.00
2013-5-23,76.0,64.0,49.9,47.3,40.1,33.1,68,44,24,30.01,29.90,6,1,6,0.00
2013-5-24,81.4,66.9,50.9,51.5,42.8,32.4,72,45,19,30.03,29.93,7,1,7,0.00
2013-5-25,79.9,66.6,52.7,51.6,46.2,41.6,71,50,29,30.02,29.96,7,2,7,0.00
2013-5-26,80.8,72.0,58.3,55.3,50.3,46.1,72,48,34,30.11,30.03,7,2,7,0.00
2013-5-27,70.6,62.8,54.7,56.3,50.5,45.5,82,65,52,30.12,30.02,6,1,6,0.03
2013-5-28,79.9,69.3,58.3,62.6,54.6,50.7,84,62,40,30.03,29.90,5,1,5,0.01
2013-5-29,81.9,72.7,59.0,61.0,53.3,45.1,81,52,31,29.96,29.88,5,1,5,0.10
2013-5-30,85.0,71.7,54.9,57.4,50.0,43.1,75,49,25,29.99,29.92,6,1,6,0.00
2013-5-31,90.7,75.5,55.8,54.5,47.4,40.6,76,41,19,30.03,29.91,6,1,6,0.00
2013-6-1,95.8,80.9,60.1,60.8,52.4,45.8,70,41,20,29.93,29.77,4,1,4,0.00
2013-6-2,96.1,82.2,62.1,62.2,53.6,49.3,70,40,23,29.77,29.63,6,1,6,0.00
2013-6-3,91.3,75.8,61.0,59.8,53.5,47.4,68,47,32,29.82,29.69,8,2,8,0.00
2013-6-4,84.4,69.3,58.0,57.6,52.2,48.2,73,56,40,29.92,29.81,8,2,8,0.00
2013-6-5,87.5,70.7,55.6,61.1,53.8,47.8,78,57,41,30.01,29.87,7,2,7,0.00
2013-6-6,91.8,73.6,56.2,64.1,55.7,48.6,77,56,39,29.95,29.81,6,2,6,0.00
2013-6-7,99.7,81.4,59.9,67.8,59.0,50.5,73,49,30,29.88,29.70,6,1,6,0.00
2013-6-8,104.4,87.1,67.9,69.2,60.6,53.0,71,44,25,29.75,29.63,7,1,7,0.00
2013-6-9,84.6,72.6,62.1,59.3,54.8,51.5,71,55,40,29.88,29.72,11,4,11,0.00
2013-6-10,76.9,68.0,59.0,57.5,53.3,50.8,76,61,47,29.98,29.83,8,2,8,0.00
2013-6-11,86.4,78.5,60.1,58.2,55.1,50.9,77,46,33,30.00,29.89,7,2,7,0.00
2013-6-12,88.7,74.7,59.9,59.7,51.6,45.6,69,47,25,29.98,29.90,7,1,7,0.00
2013-6-13,85.1,73.0,55.6,54.7,46.4,40.0,69,42,23,30.10,29.97,7,1,7,0.00
2013-6-14,88.4,76.9,65.7,50.4,45.7,41.7,55,35,22,30.00,29.82,7,1,7,0.00
2013-6-15,90.2,75.1,61.2,55.3,49.0,41.7,57,42,19,29.97,29.83,6,2,6,0.00
2013-6-16,91.6,75.9,57.8,56.5,50.8,46.3,67,44,25,30.06,29.96,7,1,7,0.00
2013-6-17,90.0,74.6,59.8,55.9,51.7,47.4,67,47,29,30.08,29.98,8,2,8,0.00
2013-6-18,83.9,70.1,56.9,57.0,51.0,47.3,77,53,31,30.02,29.92,10,2,10,0.00
2013-6-19,82.6,69.5,52.9,54.9,45.8,36.8,75,46,22,30.07,29.99,7,1,7,0.00
2013-6-20,85.3,72.7,55.3,56.8,48.7,42.7,74,46,24,30.01,29.93,6,1,6,0.00
2013-6-21,88.4,75.6,57.1,57.6,48.6,34.9,70,42,18,29.98,29.90,6,1,6,0.00
2013-6-22,93.4,78.1,58.7,58.4,49.9,43.7,73,41,19,29.94,29.81,6,1,6,0.00
2013-6-23,81.4,69.8,61.7,61.0,55.9,49.8,75,62,47,29.88,29.80,8,2,8,0.00
2013-6-24,74.5,65.9,61.7,62.2,58.0,54.1,85,76,59,29.96,29.81,8,1,8,0.05
2013-6-25,79.6,69.9,63.4,68.9,63.3,58.8,89,80,66,30.02,29.93,6,1,6,0.10
2013-6-26,89.8,77.4,62.3,70.2,62.7,58.6,89,63,41,30.07,29.99,7,1,7,0.00
2013-6-27,94.5,81.4,64.4,68.5,60.6,53.9,80,52,27,30.10,30.00,4,1,4,0.00
2013-6-28,103.5,86.6,67.0,70.7,62.2,57.3,76,47,29,30.03,29.88,6,1,6,0.00
2013-6-29,106.6,89.0,69.5,69.2,60.3,54.5,66,41,22,29.93,29.77,6,1,6,0.00
2013-6-30,103.9,88.2,69.5,67.1,60.3,55.9,65,41,25,29.85,29.73,5,1,5,0.00
2013-7-1,102.8,87.3,68.8,68.2,60.3,54.8,64,42,24,29.85,29.77,4,1,4,0.00
2013-7-2,103.1,88.8,74.5,68.0,61.6,54.5,63,42,27,29.88,29.80,8,2,8,0.00
2013-7-3,103.0,89.9,70.4,67.9,62.9,54.9,63,42,30,29.90,29.73,6,1,6,0.00
2013-7-4,105.8,89.9,74.3,70.7,62.6,53.1,65,43,24,29.76,29.62,5,1,6,0.00
2013-7-5,87.1,77.5,65.9,58.4,53.6,47.2,57,44,35,29.77,29.67,8,3,8,0.00
2013-7-6,88.4,74.4,59.0,60.2,54.4,49.9,74,52,33,29.81,29.71,6,2,6,0.00
2013-7-7,93.2,77.3,59.9,61.8,52.4,34.4,71,46,17,29.85,29.77,5,1,5,0.00
2013-7-8,93.6,77.1,59.2,59.7,49.8,37.1,71,43,16,29.97,29.84,5,1,5,0.00
2013-7-9,97.6,82.0,63.0,61.8,52.5,41.7,66,40,16,30.05,29.92,4,1,4,0.00
2013-7-10,96.5,80.7,64.4,61.0,52.1,40.0,62,40,16,29.97,29.86,7,1,7,0.00
2013-7-11,90.4,73.7,57.1,56.3,51.1,46.0,75,48,25,29.94,29.84,7,2,7,0.00
2013-7-12,88.6,73.4,56.9,59.0,53.4,48.8,76,52,32,29.95,29.85,8,2,8,0.00
2013-7-13,94.3,78.5,60.1,62.1,51.8,39.8,69,43,18,29.97,29.88,5,1,5,0.00
2013-7-14,94.3,77.6,61.4,59.4,52.3,47.0,65,43,24,29.99,29.87,5,1,5,0.00
2013-7-15,86.4,71.1,57.4,56.8,51.7,47.5,73,52,31,29.91,29.80,8,2,8,0.00
2013-7-16,80.3,67.9,56.0,56.3,52.8,48.7,81,60,40,30.02,29.86,8,3,8,0.00
2013-7-17,89.3,73.4,55.8,61.3,53.5,49.0,82,54,26,30.11,30.00,6,1,6,0.00
2013-7-18,95.0,77.6,58.5,61.6,53.5,43.6,76,47,18,30.06,29.90,5,1,5,0.00
2013-7-19,97.7,79.7,61.0,61.8,55.3,50.0,71,46,26,29.94,29.77,5,1,5,0.00
2013-7-20,98.1,79.4,61.6,64.8,56.5,50.3,69,47,29,29.85,29.68,6,1,6,0.00
2013-7-21,94.3,79.0,63.2,61.8,54.4,48.3,66,45,26,29.86,29.73,8,2,8,0.00
2013-7-22,92.2,79.4,66.1,60.0,52.6,45.1,64,41,22,29.98,29.86,8,2,8,0.00
2013-7-23,92.0,79.6,67.7,59.2,52.9,49.2,58,41,26,30.02,29.89,6,1,6,0.00
2013-7-24,97.6,81.0,64.6,62.1,55.1,49.5,66,43,29,29.99,29.87,5,1,5,0.00
2013-7-25,96.5,81.1,67.1,65.7,57.0,51.5,60,45,33,29.99,29.90,6,2,6,0.00
2013-7-26,94.7,77.3,62.1,63.1,56.0,51.2,70,50,32,30.08,29.95,7,2,7,0.00
2013-7-27,91.1,75.2,59.6,62.1,56.1,50.6,73,53,35,30.00,29.82,7,2,7,0.00
2013-7-28,88.6,72.7,58.7,62.8,55.4,49.8,77,56,38,29.87,29.76,8,2,8,0.00
2013-7-29,82.4,68.4,56.3,57.5,52.9,49.5,80,60,37,30.00,29.82,9,3,9,0.00
2013-7-30,88.7,71.6,56.5,62.8,54.4,46.8,79,57,28,30.11,29.99,7,2,7,0.00
2013-7-31,87.7,71.6,57.2,59.3,53.1,49.0,77,55,31,30.08,29.95,7,2,7,0.00
2013-8-1,86.8,72.3,58.3,57.0,52.0,48.9,72,51,30,30.06,29.94,7,2,8,0.00
2013-8-2,91.1,75.2,58.5,60.5,52.8,48.7,75,49,27,29.99,29.87,5,1,5,0.00
2013-8-3,90.7,74.4,58.7,59.9,53.0,48.8,73,49,28,29.98,29.88,5,1,5,0.00
2013-8-4,88.2,71.9,56.9,59.1,53.1,48.5,76,54,32,30.01,29.91,6,2,6,0.00
2013-8-5,88.7,71.2,56.2,58.1,52.4,47.5,80,55,26,30.03,29.91,5,2,5,0.00
2013-8-6,84.6,68.8,55.6,58.1,52.8,48.6,79,59,35,30.02,29.95,10,2,10,0.00
2013-8-7,80.5,67.8,57.2,58.6,54.3,50.2,79,63,46,30.11,30.02,9,3,9,0.00
2013-8-8,84.2,69.8,58.0,60.9,54.6,50.3,81,61,35,30.05,29.92,5,1,5,0.00
2013-8-9,83.3,69.1,56.2,59.8,54.4,49.7,80,61,40,29.99,29.91,7,2,7,0.00
2013-8-10,86.8,70.6,57.8,61.8,55.7,51.5,81,61,38,30.05,29.97,6,2,6,0.00
2013-8-11,89.1,73.3,59.6,62.5,56.5,52.2,81,58,34,30.04,29.91,6,1,6,0.00
2013-8-12,89.6,74.1,59.8,61.0,53.8,45.5,77,52,24,30.01,29.92,6,1,6,0.00
2013-8-13,93.6,77.0,59.6,61.6,52.6,47.5,72,46,23,30.01,29.89,4,1,4,0.00
2013-8-14,94.7,77.2,61.4,60.9,54.3,49.5,66,47,27,29.98,29.87,6,1,6,0.00
2013-8-15,94.0,77.7,63.7,64.6,59.2,54.5,77,56,29,29.97,29.89,6,1,6,0.00
2013-8-16,95.8,79.2,64.6,67.5,60.0,52.2,81,55,30,29.99,29.91,6,1,6,0.00
2013-8-17,92.9,77.4,65.5,63.1,57.2,51.4,68,51,34,30.00,29.83,5,1,5,0.00
2013-8-18,96.8,80.9,64.8,65.0,60.4,55.2,73,52,31,29.91,29.78,4,0,4,0.00
2013-8-19,99.5,82.8,70.6,66.7,61.8,55.8,70,51,30,29.91,29.77,6,1,6,0.00
2013-8-20,94.1,78.6,67.3,66.8,59.2,53.4,66,52,39,29.90,29.77,6,2,6,0.00
2013-8-21,89.1,74.2,62.8,59.7,54.1,45.5,71,52,25,29.93,29.84,7,2,7,0.00
2013-8-22,86.4,70.9,60.3,58.9,53.5,49.8,73,56,34,29.96,29.85,8,2,8,0.00
2013-8-23,65.5,60.0,57.8,56.2,51.3,50.1,79,73,63,29.93,29.90,4,1,4,0.00
2013-8-26,86.9,80.2,66.2,59.1,53.9,51.0,59,41,33,29.95,29.89,5,1,5,0.00
2013-8-27,91.4,73.6,59.4,60.8,54.6,51.0,78,54,28,29.92,29.80,6,1,6,0.00
2013-8-28,91.3,75.4,62.5,62.3,57.5,53.6,77,56,31,29.93,29.85,6,2,6,0.00
2013-8-29,90.4,83.9,64.1,65.3,61.4,57.3,81,48,36,30.06,29.95,5,2,5,0.00
2013-8-30,94.0,80.6,62.8,65.6,59.0,53.0,82,51,27,30.06,29.90,4,1,4,0.00
2013-8-31,93.2,76.7,63.7,63.1,55.2,48.7,73,50,25,29.98,29.88,6,1,6,0.00
2013-9-1,91.1,75.4,64.3,59.9,55.4,49.2,70,52,29,29.95,29.86,7,2,7,0.00
2013-9-2,78.5,71.5,67.3,66.3,61.6,57.3,84,71,60,29.98,29.89,6,1,6,0.00
2013-9-3,85.7,72.0,62.5,62.1,56.6,51.1,81,61,31,30.01,29.92,7,2,7,0.00
2013-9-4,87.1,71.9,61.9,61.5,55.7,51.4,78,59,30,30.05,29.93,7,1,7,0.00
2013-9-5,86.8,71.8,60.8,60.5,55.0,50.3,78,58,30,30.02,29.93,6,2,6,0.00
2013-9-6,89.3,72.5,58.3,58.0,52.9,46.4,79,54,26,30.01,29.85,6,1,6,0.00
2013-9-7,94.9,76.0,59.4,56.4,52.4,47.3,75,48,23,29.92,29.80,3,0,3,0.00
2013-9-8,96.3,77.9,61.6,57.8,53.6,49.2,72,47,23,29.89,29.73,6,1,6,0.00
2013-9-9,96.7,78.9,63.4,59.4,55.4,52.5,71,47,25,29.82,29.65,4,0,4,0.00
2013-9-10,87.3,73.2,64.8,61.1,56.3,51.9,72,57,39,29.88,29.70,8,2,8,0.00
2013-9-11,81.0,67.8,61.2,61.4,57.0,53.9,78,69,50,30.01,29.88,8,2,8,0.00
2013-9-12,85.5,73.8,60.1,63.1,58.9,55.0,83,61,43,30.00,29.86,6,2,6,0.00
2013-9-13,89.6,72.8,61.2,65.1,58.2,53.9,79,62,41,29.91,29.72,6,1,6,0.00
2013-9-14,85.9,71.3,60.8,62.5,56.5,52.6,76,61,43,29.82,29.70,6,2,6,0.00
2013-9-15,86.0,69.8,58.3,59.2,55.0,51.3,79,61,35,29.86,29.75,6,2,6,0.00
2013-9-16,84.2,70.8,60.1,62.3,56.9,52.8,84,64,39,29.92,29.77,6,1,6,0.00
2013-9-17,81.0,69.2,59.8,57.6,53.8,51.7,76,60,38,29.90,29.80,6,2,6,0.00
2013-9-18,82.8,70.3,61.6,53.0,48.0,42.5,68,47,26,29.94,29.82,8,1,8,0.00
2013-9-19,86.9,69.6,55.1,54.5,49.2,43.9,74,51,28,29.89,29.75,4,0,4,0.00
2013-9-20,82.6,69.1,59.9,59.7,52.5,44.3,72,56,39,29.88,29.76,9,2,9,0.00
2013-9-21,71.1,63.8,57.2,58.4,56.6,53.1,87,78,61,29.92,29.83,5,1,5,0.50
2013-9-22,71.8,63.2,55.8,58.0,54.3,51.9,88,74,53,30.03,29.92,5,1,5,0.00
2013-9-23,79.6,66.3,54.5,59.1,55.0,50.1,87,69,46,30.05,29.94,3,0,3,0.01
2013-9-24,79.2,67.6,59.9,58.1,54.8,50.7,79,65,45,30.00,29.86,8,1,8,0.00
2013-9-25,71.5,62.2,52.4,50.9,46.8,40.3,82,60,34,29.95,29.82,6,1,6,0.00
2013-9-26,73.1,62.9,53.1,44.4,41.3,39.0,63,47,31,30.01,29.85,9,2,9,0.00
2013-9-27,76.0,61.3,51.5,46.6,41.7,38.9,64,50,29,30.13,30.01,5,1,5,0.00
2013-9-28,80.5,59.8,50.9,48.4,42.5,39.3,69,55,25,30.13,30.03,4,0,4,0.00
2013-9-29,78.5,67.2,57.6,60.1,55.4,49.4,79,67,51,30.14,30.06,6,1,6,0.00
2013-9-30,78.1,68.8,62.3,62.7,58.9,55.6,82,71,57,30.11,29.97,6,1,6,0.00
2013-10-1,74.5,63.8,55.3,57.1,51.0,46.7,79,64,45,30.04,29.94,5,1,5,0.00
2013-10-2,77.0,65.9,54.5,50.6,47.6,43.4,73,53,34,30.02,29.94,5,1,5,0.00
2013-10-3,72.7,64.1,55.8,43.7,38.0,31.0,53,40,26,30.07,29.94,10,3,12,0.00
2013-10-4,78.5,66.9,57.2,40.2,35.5,31.4,41,32,21,30.15,30.02,8,2,8,0.00
2013-10-5,78.8,62.9,49.3,43.5,37.7,33.6,59,42,21,30.26,30.14,4,0,4,0.00
2013-10-6,78.8,62.4,48.4,50.8,43.9,39.6,72,53,26,30.19,30.03,4,0,4,0.00
2013-10-7,80.6,65.1,51.8,47.2,44.3,39.2,72,50,23,30.03,29.88,3,0,3,0.00
2013-10-8,74.5,62.3,53.3,45.1,42.3,39.6,64,50,29,29.93,29.69,6,1,6,0.00
2013-10-9,72.5,62.6,52.6,45.7,40.9,37.9,62,46,33,29.78,29.61,7,1,7,0.00
2013-10-10,72.4,61.0,53.1,49.3,44.7,38.4,69,56,40,30.03,29.78,8,1,8,0.00
2013-10-11,72.9,60.6,50.8,52.2,46.9,43.8,80,62,41,30.11,29.98,4,0,4,0.00
2013-10-12,74.2,60.0,48.4,52.2,46.5,43.1,84,63,40,30.04,29.89,5,1,5,0.00
2013-10-13,72.2,60.9,51.1,46.8,43.9,40.6,72,55,33,30.08,29.91,8,1,8,0.00
2013-10-14,74.2,59.5,47.2,45.5,41.6,39.2,75,54,30,30.16,30.03,5,1,5,0.00
2013-10-15,76.9,61.3,47.3,44.1,39.5,36.6,73,48,25,30.09,29.98,6,1,6,0.00
2013-10-16,76.5,60.6,47.3,46.2,41.8,36.7,72,52,29,30.15,30.02,4,0,4,0.00
2013-10-17,76.0,60.4,47.7,47.5,43.3,39.8,75,56,29,30.12,29.98,4,0,4,0.00
2013-10-18,77.4,60.4,46.8,47.6,44.1,39.0,75,58,32,30.10,30.00,3,0,3,0.00
2013-10-19,78.7,61.2,47.9,49.2,45.6,41.3,79,59,32,30.12,30.02,4,0,4,0.00
2013-10-20,78.1,61.1,47.2,49.8,45.6,41.0,80,60,32,30.05,29.91,2,0,2,0.00
2013-10-21,77.0,61.8,49.1,52.2,47.0,41.5,78,60,38,30.03,29.92,2,0,2,0.00
2013-10-22,78.5,62.4,50.0,51.2,47.6,44.1,81,61,34,30.06,29.93,4,0,4,0.00
2013-10-23,77.8,61.5,48.6,50.9,46.9,43.3,84,62,32,29.98,29.87,4,0,4,0.00
2013-10-24,68.8,58.0,50.2,52.1,47.7,44.6,82,69,52,30.09,29.94,5,1,5,0.00
2013-10-25,72.2,57.3,47.3,51.6,46.8,42.5,85,70,43,30.21,30.08,4,0,4,0.00
2013-10-26,75.2,60.5,46.6,52.6,47.4,41.1,84,64,40,30.19,30.03,4,0,4,0.00
2013-10-27,67.7,55.7,47.5,52.2,46.2,41.7,82,71,54,30.03,29.61,13,2,13,0.00
2013-10-28,67.3,55.4,46.4,47.8,44.2,41.6,85,68,45,29.88,29.63,6,1,6,0.00
2013-10-29,64.8,57.1,49.9,49.7,45.6,42.2,76,66,53,30.08,29.88,5,0,5,0.00
2013-10-30,64.6,53.5,43.6,49.2,43.8,39.3,87,71,50,30.19,30.07,5,0,5,0.00
2013-10-31,67.0,53.9,42.8,48.3,43.8,38.4,85,70,47,30.22,30.10,3,0,3,0.00
2013-11-1,71.6,55.3,44.3,49.9,44.6,40.0,86,69,42,30.22,30.04,3,0,3,0.00
2013-11-2,73.3,57.6,44.6,52.8,45.7,39.2,82,66,48,30.06,29.89,4,1,4,0.00
2013-11-3,64.4,57.3,48.8,33.3,31.6,30.2,51,38,29,30.07,29.93,10,2,10,0.00
2013-11-4,66.2,55.2,41.6,35.1,31.8,29.4,64,43,27,30.10,29.93,11,2,11,0.00
2013-11-5,66.6,54.3,42.8,38.0,34.1,29.9,62,48,31,30.27,30.09,6,0,6,0.00
2013-11-6,69.3,55.2,43.9,42.4,38.7,33.9,71,55,33,30.32,30.21,4,0,4,0.00
2013-11-7,71.8,58.0,48.2,45.8,42.5,40.0,77,58,35,30.22,30.08,4,0,4,0.00
2013-11-8,69.8,54.3,44.5,45.5,41.3,36.6,76,63,39,30.11,29.97,3,0,3,0.00
2013-11-9,70.4,54.5,45.0,47.9,43.3,38.9,80,67,44,30.08,30.01,3,0,3,0.00
2013-11-10,69.1,54.9,44.8,47.8,43.5,39.3,82,67,45,30.14,30.06,3,0,3,0.00
2013-11-11,68.6,54.5,43.4,50.4,44.6,39.1,87,71,47,30.20,30.11,3,0,3,0.00
2013-11-12,71.6,59.7,50.9,49.1,45.7,42.3,75,61,39,30.31,30.17,4,0,4,0.00
2013-11-13,73.1,56.8,45.0,50.0,44.6,39.7,83,66,41,30.28,30.09,5,0,5,0.00
2013-11-14,65.9,54.9,48.2,53.4,46.4,41.3,83,73,62,30.11,29.85,4,0,4,0.00
2013-11-15,65.9,53.1,44.3,43.7,39.4,35.7,86,62,34,29.87,29.73,6,1,6,0.00
2013-11-16,62.1,51.5,44.1,45.1,40.1,36.4,78,66,47,29.95,29.77,6,1,6,0.00
2013-11-17,61.2,50.1,41.2,48.6,42.0,35.5,82,74,61,30.12,29.95,3,0,3,0.00
2013-11-18,61.7,51.6,41.9,49.9,44.0,37.9,88,76,61,30.18,30.10,4,1,4,0.00
2013-11-19,64.3,56.4,50.9,53.2,49.8,45.2,88,79,65,30.14,29.99,4,0,4,0.43
2013-11-20,58.5,55.8,54.2,55.6,52.8,51.2,91,90,88,30.00,29.86,6,1,6,0.42
2013-11-21,60.1,55.2,49.1,52.3,35.9,28.5,91,50,36,30.06,29.91,11,4,11,0.00
2013-11-22,68.4,54.7,44.8,36.5,27.6,20.8,68,37,18,30.09,29.95,9,2,9,0.00
2013-11-23,60.7,50.4,40.0,46.7,42.1,34.6,86,74,57,30.15,30.04,4,0,4,0.00
2013-11-24,59.8,48.6,39.6,46.4,40.9,35.3,87,76,59,30.27,30.15,4,0,4,0.00
2013-11-25,59.9,50.1,39.2,46.2,42.1,35.4,88,75,59,30.39,30.30,4,1,4,0.00
2013-11-26,59.8,50.3,41.0,46.9,42.1,37.1,87,74,59,30.31,30.10,3,0,3,0.00
2013-11-27,61.4,51.1,42.7,48.6,42.9,38.4,87,74,59,30.10,29.90,5,0,5,0.00
2013-11-28,65.9,52.0,43.6,47.4,42.5,39.3,85,71,47,30.10,29.92,5,0,5,0.00
2013-11-29,65.0,51.0,41.4,47.0,41.7,36.7,87,72,49,30.25,30.10,4,0,4,0.00
2013-11-30,63.7,50.1,42.7,46.8,41.8,37.7,85,74,52,30.32,30.22,4,0,4,0.00
2013-12-1,64.1,51.0,41.4,48.4,42.6,36.9,88,74,54,30.39,30.26,4,0,4,0.00
2013-12-2,65.2,50.4,41.2,50.0,43.2,36.9,87,77,56,30.27,29.93,7,1,7,0.00
2013-12-3,54.5,50.8,41.8,49.0,35.2,22.5,87,58,29,29.96,29.83,10,2,10,0.00
2013-12-4,47.3,39.5,32.6,24.8,21.5,16.5,66,49,33,30.12,29.95,9,2,9,0.00
2013-12-5,47.2,37.0,31.1,24.0,21.6,19.4,65,54,37,30.21,30.11,5,1,5,0.00
2013-12-6,47.7,38.8,29.2,35.7,28.3,20.7,84,66,54,30.26,29.95,7,1,7,0.43
2013-12-7,45.7,39.2,32.0,37.6,31.9,26.8,87,76,53,30.29,29.94,8,1,8,0.01
2013-12-8,41.9,34.4,30.2,29.0,26.0,23.1,83,72,53,30.38,30.28,7,1,7,0.01
2013-12-9,47.5,35.4,27.0,32.4,26.4,21.1,81,70,49,30.49,30.36,4,0,4,0.00
2013-12-10,49.3,37.8,29.9,32.8,28.5,24.8,83,70,49,30.49,30.25,5,0,5,0.00
2013-12-11,52.9,39.7,30.8,35.8,30.2,25.6,84,70,48,30.33,30.24,4,0,4,0.00
2013-12-12,54.7,41.0,31.0,38.0,32.0,26.3,85,71,50,30.33,30.21,4,0,4,0.00
2013-12-13,57.1,42.9,33.3,38.4,33.3,28.4,84,70,47,30.38,30.26,5,0,5,0.00
2013-12-14,56.5,43.4,33.7,39.7,34.0,28.4,83,70,52,30.48,30.36,4,0,4,0.00
2013-12-15,57.2,43.3,34.2,41.1,34.9,29.8,87,73,51,30.43,30.30,5,0,5,0.00
2013-12-16,60.1,44.9,35.1,42.9,36.5,30.7,86,73,52,30.31,30.18,2,0,2,0.00
2013-12-17,61.6,47.4,38.3,45.5,38.7,33.8,85,73,52,30.25,30.07,4,0,4,0.00
2013-12-18,59.8,49.6,42.1,45.4,41.2,36.6,83,74,54,30.08,29.74,3,0,3,0.00
2013-12-19,58.0,48.7,41.9,41.1,32.9,20.9,87,58,32,29.95,29.71,18,3,18,0.00
2013-12-20,59.2,46.7,37.4,31.8,24.1,18.8,65,42,25,30.05,29.93,8,1,8,0.00
2013-12-21,56.9,44.7,36.4,38.8,33.3,29.5,79,65,45,30.14,30.00,6,0,6,0.00
2013-12-22,59.0,45.3,35.6,40.5,35.1,30.0,81,68,49,30.34,30.14,3,0,3,0.00
2013-12-23,60.1,47.2,37.3,42.8,37.1,31.8,83,69,50,30.47,30.34,4,0,4,0.00
2013-12-24,60.8,47.4,38.7,44.0,38.2,33.4,83,71,51,30.38,30.25,3,0,3,0.00
2013-12-25,59.8,46.0,36.4,45.4,38.0,32.0,86,74,57,30.37,30.26,4,0,4,0.00
2013-12-26,61.2,45.8,35.8,43.7,36.7,31.4,87,72,47,30.33,30.23,4,0,4,0.00
2013-12-27,58.3,45.1,35.6,42.8,35.8,30.6,84,71,52,30.32,30.16,3,0,3,0.00
2013-12-28,64.3,47.2,34.6,38.9,33.6,30.2,85,62,33,30.19,30.04,9,1,9,0.00
2013-12-29,59.4,45.6,35.1,41.9,34.8,28.3,78,66,50,30.25,30.13,4,0,4,0.00
2013-12-30,59.4,46.0,35.3,41.0,35.9,30.1,84,69,45,30.32,30.24,3,0,3,0.00
2013-12-31,60.5,47.5,40.1,40.5,36.2,32.3,79,66,42,30.32,30.19,5,0,5,0.00
2014-1-1,60.1,45.7,35.8,40.3,34.9,29.6,80,67,45,30.27,30.16,3,0,3,0.00
2014-1-2,63.0,47.3,37.8,41.3,36.3,32.0,82,67,42,30.24,30.09,5,0,5,0.00